• In Spain
  • List of Countries
  • For 7 days
  • Water Temperature
  • Satellite Maps
  • Weather Map
  • Weather Widgets
  • user-avatar
    Login

    Hourly Weather Sao Joao da Madeira

    Today, 21 November, Tuesday

    Time Temperature Precipitation Wind Pressure Humidity
    00:00 +12°C° 0 mm 2 mps 746 mmHg 45%
    01:00 +12°C° 0 mm 2 mps 746 mmHg 46%
    02:00 +10°C° 0 mm 2 mps 746 mmHg 46%
    03:00 +10°C° 0 mm 2 mps 746 mmHg 47%
    04:00 +10°C° 0 mm 3 mps 746 mmHg 47%
    05:00 +10°C° 0 mm 3 mps 746 mmHg 47%
    06:00 +10°C° 0 mm 3 mps 746 mmHg 47%
    07:00 +11°C° 0 mm 3 mps 746 mmHg 46%
    08:00 +12°C° 0 mm 3 mps 746 mmHg 46%
    09:00 +14°C° 0 mm 3 mps 746 mmHg 41%
    10:00 +18°C° 0 mm 3 mps 745 mmHg 36%
    11:00 +20°C° 0 mm 2 mps 745 mmHg 31%
    12:00 +20°C° 0 mm 3 mps 745 mmHg 32%
    13:00 +21°C° 0 mm 3 mps 744 mmHg 32%
    14:00 +21°C° 0 mm 3 mps 744 mmHg 32%
    15:00 +19°C° 0 mm 3 mps 744 mmHg 39%
    16:00 +17°C° 0 mm 3 mps 743 mmHg 45%
    17:00 +14°C° 0 mm 3 mps 743 mmHg 51%
    18:00 +13°C° 0 mm 3 mps 743 mmHg 52%
    19:00 +13°C° 0 mm 3 mps 743 mmHg 52%
    20:00 +12°C° 0 mm 3 mps 743 mmHg 53%
    21:00 +12°C° 0 mm 3 mps 743 mmHg 53%
    22:00 +12°C° 0 mm 4 mps 742 mmHg 53%
    23:00 +11°C° 0 mm 4 mps 742 mmHg 53%

    Tomorrow, 22 November, Wednesday

    Time Temperature Precipitation Wind Pressure Humidity
    00:00 +11°C° 0 mm 4 mps 742 mmHg 54%
    01:00 +11°C° 0 mm 4 mps 741 mmHg 56%
    02:00 +10°C° 0 mm 5 mps 741 mmHg 57%
    03:00 +10°C° 0 mm 5 mps 741 mmHg 58%
    04:00 +10°C° 0 mm 5 mps 740 mmHg 59%
    05:00 +10°C° 0 mm 5 mps 740 mmHg 59%
    06:00 +11°C° 0 mm 6 mps 740 mmHg 57%
    07:00 +11°C° 0 mm 6 mps 739 mmHg 55%
    08:00 +13°C° 0 mm 6 mps 739 mmHg 54%
    09:00 +15°C° 0 mm 7 mps 739 mmHg 49%
    10:00 +17°C° 0 mm 7 mps 739 mmHg 45%
    11:00 +20°C° 0 mm 8 mps 739 mmHg 41%
    12:00 +18°C° 0.4 mm 8 mps 739 mmHg 48%
    13:00 +18°C° 0.4 mm 8 mps 738 mmHg 55%
    14:00 +17°C° 0.4 mm 8 mps 738 mmHg 61%
    15:00 +16°C° 0.2 mm 8 mps 738 mmHg 67%
    16:00 +15°C° 0.2 mm 7 mps 738 mmHg 72%
    17:00 +14°C° 0.2 mm 7 mps 738 mmHg 77%
    18:00 +14°C° 0.1 mm 6 mps 738 mmHg 77%
    19:00 +14°C° 0.1 mm 6 mps 738 mmHg 76%
    20:00 +14°C° 0.1 mm 6 mps 738 mmHg 76%
    21:00 +14°C° 0.2 mm 5 mps 738 mmHg 78%
    22:00 +14°C° 0.2 mm 5 mps 739 mmHg 80%
    23:00 +14°C° 0.2 mm 4 mps 739 mmHg 82%

    Day after tomorrow, 23 November, Thursday

    Time Temperature Precipitation Wind Pressure Humidity
    00:00 +14°C° 0.2 mm 4 mps 739 mmHg 85%
    01:00 +14°C° 0.2 mm 4 mps 739 mmHg 88%
    02:00 +14°C° 0.2 mm 4 mps 739 mmHg 91%
    03:00 +14°C° 0.1 mm 4 mps 739 mmHg 91%
    04:00 +14°C° 0.1 mm 4 mps 739 mmHg 92%
    05:00 +14°C° 0.1 mm 4 mps 739 mmHg 93%
    06:00 +14°C° 0.1 mm 4 mps 740 mmHg 92%
    07:00 +15°C° 0.1 mm 5 mps 740 mmHg 90%
    08:00 +15°C° 0.1 mm 5 mps 740 mmHg 89%
    09:00 +16°C° 0.1 mm 5 mps 740 mmHg 82%
    10:00 +17°C° 0.1 mm 6 mps 741 mmHg 74%
    11:00 +19°C° 0.1 mm 6 mps 741 mmHg 67%
    12:00 +19°C° 0.2 mm 6 mps 741 mmHg 62%
    13:00 +19°C° 0.2 mm 5 mps 740 mmHg 58%
    14:00 +20°C° 0.2 mm 4 mps 740 mmHg 53%
    15:00 +19°C° 0.1 mm 4 mps 740 mmHg 52%
    16:00 +18°C° 0.1 mm 4 mps 740 mmHg 51%
    17:00 +17°C° 0.1 mm 4 mps 740 mmHg 51%
    18:00 +17°C° 0.2 mm 4 mps 740 mmHg 53%
    19:00 +15°C° 0.2 mm 4 mps 740 mmHg 55%
    20:00 +15°C° 0.2 mm 4 mps 740 mmHg 57%
    21:00 +15°C° 0.2 mm 5 mps 740 mmHg 59%
    22:00 +15°C° 0.2 mm 5 mps 739 mmHg 60%
    23:00 +15°C° 0.2 mm 6 mps 739 mmHg 61%

    24 November, Friday

    Time Temperature Precipitation Wind Pressure Humidity
    00:00 +15°C° 0.5 mm 6 mps 739 mmHg 61%
    01:00 +15°C° 0.5 mm 7 mps 739 mmHg 61%
    02:00 +15°C° 0.5 mm 7 mps 738 mmHg 60%
    03:00 +14°C° 0.8 mm 6 mps 739 mmHg 66%
    04:00 +14°C° 0.8 mm 6 mps 739 mmHg 71%
    05:00 +14°C° 0.8 mm 5 mps 739 mmHg 77%
    06:00 +14°C° 0.4 mm 5 mps 739 mmHg 78%
    07:00 +14°C° 0.4 mm 5 mps 739 mmHg 79%
    08:00 +14°C° 0.4 mm 5 mps 740 mmHg 80%
    09:00 +14°C° 0.5 mm 6 mps 740 mmHg 81%
    10:00 +14°C° 0.5 mm 6 mps 740 mmHg 81%
    11:00 +14°C° 0.5 mm 6 mps 740 mmHg 82%
    12:00 +14°C° 0.8 mm 6 mps 739 mmHg 84%
    13:00 +14°C° 0.8 mm 5 mps 739 mmHg 85%
    14:00 +14°C° 0.8 mm 5 mps 739 mmHg 87%
    15:00 +14°C° 2.1 mm 4 mps 739 mmHg 89%
    16:00 +14°C° 2.1 mm 4 mps 739 mmHg 91%
    17:00 +14°C° 2.1 mm 3 mps 739 mmHg 92%
    18:00 +14°C° 0.7 mm 3 mps 739 mmHg 93%
    19:00 +14°C° 0.7 mm 3 mps 740 mmHg 94%
    20:00 +15°C° 0.7 mm 2 mps 740 mmHg 95%
    21:00 +15°C° 0.6 mm 2 mps 740 mmHg 95%
    22:00 +15°C° 0.6 mm 2 mps 740 mmHg 95%
    23:00 +15°C° 0.6 mm 2 mps 741 mmHg 96%

    25 November, Saturday

    Time Temperature Precipitation Wind Pressure Humidity
    00:00 +14°C° 0.8 mm 3 mps 741 mmHg 94%
    01:00 +14°C° 0.8 mm 4 mps 741 mmHg 93%
    02:00 +13°C° 0.8 mm 5 mps 742 mmHg 92%
    03:00 +13°C° 0.2 mm 4 mps 742 mmHg 90%
    04:00 +13°C° 0.2 mm 3 mps 742 mmHg 88%
    05:00 +12°C° 0.2 mm 3 mps 743 mmHg 87%
    06:00 +12°C° 0 mm 3 mps 743 mmHg 86%
    07:00 +13°C° 0 mm 3 mps 744 mmHg 85%
    08:00 +13°C° 0 mm 4 mps 744 mmHg 84%
    09:00 +13°C° 0.1 mm 4 mps 745 mmHg 82%
    10:00 +14°C° 0.1 mm 4 mps 745 mmHg 80%
    11:00 +14°C° 0.1 mm 4 mps 745 mmHg 78%
    12:00 +14°C° 0.1 mm 4 mps 745 mmHg 78%
    13:00 +14°C° 0.1 mm 4 mps 744 mmHg 78%
    14:00 +14°C° 0.1 mm 4 mps 744 mmHg 78%
    15:00 +14°C° 0.2 mm 3 mps 744 mmHg 79%
    16:00 +13°C° 0.2 mm 3 mps 745 mmHg 81%
    17:00 +13°C° 0.2 mm 3 mps 745 mmHg 82%
    18:00 +13°C° 0.8 mm 3 mps 746 mmHg 84%
    19:00 +13°C° 0.8 mm 3 mps 746 mmHg 85%
    20:00 +13°C° 0.8 mm 3 mps 746 mmHg 87%
    21:00 +13°C° 0.9 mm 3 mps 746 mmHg 88%
    22:00 +13°C° 0.9 mm 3 mps 746 mmHg 89%
    23:00 +13°C° 0.9 mm 3 mps 746 mmHg 89%

    26 November, Sunday

    Time Temperature Precipitation Wind Pressure Humidity
    00:00 +13°C° 0.6 mm 3 mps 746 mmHg 90%
    01:00 +13°C° 0.6 mm 3 mps 746 mmHg 90%
    02:00 +13°C° 0.6 mm 3 mps 746 mmHg 90%
    03:00 +13°C° 0.6 mm 3 mps 746 mmHg 90%
    04:00 +12°C° 0.6 mm 3 mps 747 mmHg 90%
    05:00 +12°C° 0.6 mm 3 mps 747 mmHg 90%
    06:00 +12°C° 0.8 mm 3 mps 747 mmHg 90%
    07:00 +12°C° 0.8 mm 3 mps 747 mmHg 90%
    08:00 +12°C° 0.8 mm 3 mps 748 mmHg 90%
    09:00 +13°C° 0.6 mm 3 mps 748 mmHg 88%
    10:00 +14°C° 0.6 mm 2 mps 748 mmHg 87%
    11:00 +15°C° 0.6 mm 2 mps 748 mmHg 85%
    12:00 +15°C° 0.4 mm 2 mps 748 mmHg 85%
    13:00 +14°C° 0.4 mm 3 mps 747 mmHg 84%
    14:00 +14°C° 0.4 mm 3 mps 747 mmHg 84%
    15:00 +14°C° 0.2 mm 3 mps 747 mmHg 85%
    16:00 +13°C° 0.2 mm 3 mps 747 mmHg 86%
    17:00 +13°C° 0.2 mm 3 mps 747 mmHg 88%
    18:00 +13°C° 0 mm 3 mps 747 mmHg 88%
    19:00 +12°C° 0 mm 3 mps 747 mmHg 88%
    20:00 +12°C° 0 mm 3 mps 747 mmHg 88%
    21:00 +12°C° 0 mm 3 mps 746 mmHg 88%
    22:00 +12°C° 0 mm 3 mps 746 mmHg 88%
    23:00 +12°C° 0 mm 3 mps 746 mmHg 88%
    Show more